• In Uzbekistan
  • List of Countries
  • For 7 days
  • Water Temperature
  • Weather Map
  • Weather Widgets
  • user-avatar
    Login

    Hourly Weather Alimkent

    Today, 1 April, Wednesday

    Time Temperature Precipitation Wind Pressure Humidity
    00:00 +16°C° 0 mm 1 mps 727 mmHg 77%
    01:00 +16°C° 0 mm 1 mps 727 mmHg 75%
    02:00 +16°C° 0 mm 1 mps 727 mmHg 72%
    03:00 +16°C° 0.1 mm 1 mps 727 mmHg 73%
    04:00 +16°C° 0.1 mm 1 mps 728 mmHg 73%
    05:00 +15°C° 0 mm 1 mps 728 mmHg 72%
    06:00 +16°C° 0.1 mm 2 mps 728 mmHg 70%
    07:00 +16°C° 0.1 mm 3 mps 729 mmHg 67%
    08:00 +17°C° 0.1 mm 4 mps 729 mmHg 65%
    09:00 +15°C° 0.6 mm 4 mps 730 mmHg 67%
    10:00 +15°C° 0.6 mm 4 mps 730 mmHg 70%
    11:00 +15°C° 0 mm 4 mps 731 mmHg 72%
    12:00 +14°C° 1.6 mm 4 mps 731 mmHg 74%
    13:00 +14°C° 1.6 mm 3 mps 731 mmHg 76%
    14:00 +14°C° 1.6 mm 3 mps 731 mmHg 79%
    15:00 +14°C° 0.7 mm 3 mps 732 mmHg 78%
    16:00 +14°C° 0.7 mm 4 mps 732 mmHg 77%
    17:00 +14°C° 0 mm 4 mps 733 mmHg 76%
    18:00 +13°C° 0.2 mm 3 mps 733 mmHg 77%
    19:00 +13°C° 0.2 mm 3 mps 733 mmHg 78%
    20:00 +14°C° 0.2 mm 2 mps 733 mmHg 78%
    21:00 +14°C° 0.3 mm 2 mps 734 mmHg 79%
    22:00 +13°C° 0.3 mm 2 mps 734 mmHg 80%
    23:00 +13°C° 0.3 mm 2 mps 735 mmHg 80%

    Tomorrow, 2 April, Thursday

    Time Temperature Precipitation Wind Pressure Humidity
    00:00 +13°C° 0 mm 2 mps 735 mmHg 80%
    01:00 +13°C° 0 mm 2 mps 734 mmHg 80%
    02:00 +12°C° 0 mm 2 mps 734 mmHg 80%
    03:00 +12°C° 0 mm 2 mps 735 mmHg 80%
    04:00 +12°C° 0 mm 1 mps 735 mmHg 79%
    05:00 +12°C° 0 mm 1 mps 735 mmHg 79%
    06:00 +13°C° 0 mm 1 mps 735 mmHg 74%
    07:00 +14°C° 0 mm 1 mps 736 mmHg 70%
    08:00 +15°C° 0 mm 1 mps 736 mmHg 65%
    09:00 +16°C° 0 mm 1 mps 736 mmHg 56%
    10:00 +18°C° 0 mm 1 mps 735 mmHg 48%
    11:00 +20°C° 0 mm 1 mps 735 mmHg 40%
    12:00 +21°C° 0 mm 1 mps 735 mmHg 37%
    13:00 +21°C° 0 mm 1 mps 734 mmHg 35%
    14:00 +22°C° 0 mm 1 mps 734 mmHg 33%
    15:00 +22°C° 0 mm 1 mps 734 mmHg 32%
    16:00 +22°C° 0 mm 1 mps 733 mmHg 31%
    17:00 +22°C° 0 mm 1 mps 733 mmHg 31%
    18:00 +20°C° 0 mm 2 mps 733 mmHg 35%
    19:00 +18°C° 0 mm 2 mps 734 mmHg 39%
    20:00 +17°C° 0 mm 2 mps 734 mmHg 43%
    21:00 +17°C° 0 mm 2 mps 734 mmHg 46%
    22:00 +16°C° 0 mm 2 mps 734 mmHg 48%
    23:00 +16°C° 0 mm 2 mps 734 mmHg 50%

    Day after tomorrow, 3 April, Friday

    Time Temperature Precipitation Wind Pressure Humidity
    00:00 +15°C° 0 mm 2 mps 733 mmHg 50%
    01:00 +15°C° 0 mm 2 mps 733 mmHg 50%
    02:00 +15°C° 0 mm 2 mps 732 mmHg 50%
    03:00 +15°C° 0 mm 2 mps 732 mmHg 50%
    04:00 +14°C° 0 mm 2 mps 732 mmHg 50%
    05:00 +14°C° 0 mm 2 mps 732 mmHg 49%
    06:00 +15°C° 0 mm 2 mps 732 mmHg 49%
    07:00 +16°C° 0 mm 2 mps 732 mmHg 48%
    08:00 +16°C° 0 mm 1 mps 732 mmHg 47%
    09:00 +19°C° 0 mm 1 mps 732 mmHg 41%
    10:00 +22°C° 0 mm 1 mps 732 mmHg 36%
    11:00 +24°C° 0 mm 1 mps 732 mmHg 30%
    12:00 +25°C° 0 mm 1 mps 732 mmHg 28%
    13:00 +26°C° 0 mm 1 mps 732 mmHg 25%
    14:00 +27°C° 0 mm 1 mps 732 mmHg 23%
    15:00 +26°C° 0 mm 2 mps 732 mmHg 26%
    16:00 +26°C° 0 mm 2 mps 732 mmHg 28%
    17:00 +26°C° 0 mm 3 mps 732 mmHg 31%
    18:00 +24°C° 0 mm 2 mps 732 mmHg 34%
    19:00 +21°C° 0 mm 2 mps 732 mmHg 36%
    20:00 +20°C° 0 mm 2 mps 732 mmHg 38%
    21:00 +19°C° 0 mm 2 mps 732 mmHg 39%
    22:00 +19°C° 0 mm 2 mps 732 mmHg 41%
    23:00 +18°C° 0 mm 2 mps 732 mmHg 42%

    4 April, Saturday

    Time Temperature Precipitation Wind Pressure Humidity
    00:00 +18°C° 0 mm 2 mps 732 mmHg 42%
    01:00 +18°C° 0 mm 2 mps 732 mmHg 41%
    02:00 +17°C° 0 mm 2 mps 732 mmHg 40%
    03:00 +17°C° 0 mm 2 mps 732 mmHg 40%
    04:00 +17°C° 0 mm 2 mps 731 mmHg 40%
    05:00 +16°C° 0 mm 1 mps 731 mmHg 40%
    06:00 +18°C° 0 mm 1 mps 731 mmHg 40%
    07:00 +19°C° 0 mm 1 mps 732 mmHg 40%
    08:00 +20°C° 0 mm 1 mps 732 mmHg 40%
    09:00 +22°C° 0 mm 1 mps 732 mmHg 36%
    10:00 +24°C° 0 mm 1 mps 732 mmHg 32%
    11:00 +26°C° 0 mm 2 mps 732 mmHg 29%
    12:00 +26°C° 0 mm 2 mps 732 mmHg 27%
    13:00 +27°C° 0 mm 2 mps 731 mmHg 26%
    14:00 +28°C° 0 mm 3 mps 731 mmHg 25%
    15:00 +28°C° 0 mm 3 mps 731 mmHg 27%
    16:00 +28°C° 0 mm 3 mps 731 mmHg 30%
    17:00 +27°C° 0 mm 3 mps 730 mmHg 33%
    18:00 +26°C° 0 mm 3 mps 730 mmHg 37%
    19:00 +24°C° 0 mm 3 mps 730 mmHg 42%
    20:00 +21°C° 0 mm 3 mps 730 mmHg 47%
    21:00 +21°C° 0 mm 2 mps 731 mmHg 46%
    22:00 +20°C° 0 mm 2 mps 731 mmHg 45%
    23:00 +21°C° 0 mm 1 mps 731 mmHg 44%

    5 April, Sunday

    Time Temperature Precipitation Wind Pressure Humidity
    00:00 +19°C° 0 mm 2 mps 730 mmHg 45%
    01:00 +19°C° 0 mm 2 mps 730 mmHg 46%
    02:00 +19°C° 0 mm 2 mps 730 mmHg 47%
    03:00 +18°C° 0 mm 2 mps 730 mmHg 48%
    04:00 +18°C° 0 mm 2 mps 730 mmHg 50%
    05:00 +17°C° 0 mm 2 mps 730 mmHg 51%
    06:00 +17°C° 0 mm 2 mps 731 mmHg 53%
    07:00 +18°C° 0 mm 2 mps 731 mmHg 54%
    08:00 +18°C° 0 mm 3 mps 731 mmHg 56%
    09:00 +19°C° 0 mm 3 mps 732 mmHg 55%
    10:00 +19°C° 0 mm 3 mps 732 mmHg 54%
    11:00 +20°C° 0 mm 4 mps 732 mmHg 53%
    12:00 +21°C° 0 mm 3 mps 732 mmHg 50%
    13:00 +21°C° 0 mm 3 mps 733 mmHg 47%
    14:00 +23°C° 0 mm 2 mps 733 mmHg 45%
    15:00 +23°C° 0 mm 2 mps 733 mmHg 46%
    16:00 +22°C° 0 mm 3 mps 733 mmHg 48%
    17:00 +22°C° 0 mm 3 mps 733 mmHg 49%
    18:00 +20°C° 0.1 mm 3 mps 733 mmHg 55%
    19:00 +19°C° 0.1 mm 2 mps 734 mmHg 62%
    20:00 +18°C° 0.1 mm 2 mps 734 mmHg 68%
    21:00 +17°C° 0.6 mm 2 mps 734 mmHg 74%
    22:00 +16°C° 0.6 mm 2 mps 735 mmHg 80%
    23:00 +15°C° 0.6 mm 2 mps 735 mmHg 86%

    6 April, Monday

    Time Temperature Precipitation Wind Pressure Humidity
    00:00 +15°C° 0.1 mm 2 mps 735 mmHg 86%
    01:00 +14°C° 0.1 mm 2 mps 734 mmHg 86%
    02:00 +14°C° 0.1 mm 1 mps 734 mmHg 87%
    03:00 +14°C° 0 mm 2 mps 734 mmHg 87%
    04:00 +14°C° 0 mm 2 mps 734 mmHg 88%
    05:00 +14°C° 0 mm 2 mps 734 mmHg 89%
    06:00 +14°C° 0 mm 2 mps 734 mmHg 88%
    07:00 +14°C° 0 mm 1 mps 734 mmHg 86%
    08:00 +14°C° 0 mm 1 mps 734 mmHg 85%
    09:00 +15°C° 0 mm 1 mps 734 mmHg 80%
    10:00 +16°C° 0 mm 2 mps 733 mmHg 75%
    11:00 +17°C° 0 mm 2 mps 733 mmHg 70%
    12:00 +18°C° 0 mm 2 mps 733 mmHg 66%
    13:00 +19°C° 0 mm 2 mps 733 mmHg 62%
    14:00 +19°C° 0 mm 2 mps 733 mmHg 58%
    15:00 +20°C° 0 mm 2 mps 733 mmHg 57%
    16:00 +20°C° 0 mm 2 mps 733 mmHg 55%
    17:00 +20°C° 0 mm 2 mps 732 mmHg 54%
    18:00 +19°C° 0 mm 2 mps 733 mmHg 59%
    19:00 +18°C° 0 mm 2 mps 733 mmHg 63%
    20:00 +16°C° 0 mm 2 mps 733 mmHg 68%
    21:00 +16°C° 0 mm 1 mps 733 mmHg 70%
    22:00 +16°C° 0 mm 1 mps 733 mmHg 72%
    23:00 +15°C° 0 mm 1 mps 733 mmHg 74%
    Show more